Date String (YYYY-MM-DD hh:mm:ss) UTC,Instrument flags,Ambient pressure (hPa),Sample flow (lpm),Bypass flow (lpm),Sample temperature (°C),Ambient temperature (°C),ASC tube jacket temperature (°C),LED temperature (°C),Box temperature (°C),Sample RH (%),Span deviation,Mass concentration (μg/m³),Mass concentration (μg/m³),Mass concentration (μg/m³)
DateTimeUTC,F1_M11,P_M11,Q1_M11,Q2_M11,T1_M11,T2_M11,T3_M11,T4_M11,T5_M11,U1_M11,ZSPAN_M11,X2_M11,X0_M11,X1_M11
2022-09-28 14:00:00,,0833.7,5.01,0.00,28.7,26.9,00.0,37.5,30.5,21.0,0000.0,0004.50,0011.29,0003.74
2022-09-28 14:01:00,,0833.7,5.00,0.00,28.7,26.9,00.0,37.5,30.6,21.1,0000.0,0004.49,0011.22,0003.75
2022-09-28 14:02:00,,0833.7,4.99,0.00,28.7,27.0,00.0,37.5,30.6,21.0,0000.0,0004.50,0010.90,0003.77
2022-09-28 14:03:00,,0833.7,5.01,0.00,28.7,27.0,00.0,37.5,30.6,21.0,0000.0,0004.50,0010.59,0003.77
2022-09-28 14:04:00,,0833.7,4.98,0.00,28.7,27.0,00.0,37.5,30.6,20.9,0000.0,0004.50,0010.84,0003.77
2022-09-28 14:05:00,,0833.7,5.00,0.00,28.7,27.0,00.0,37.5,30.6,21.0,0000.0,0004.48,0010.75,0003.77
2022-09-28 14:06:00,,0833.7,5.00,0.00,28.7,27.0,00.0,37.5,30.6,20.9,0000.0,0004.51,0010.85,0003.76
2022-09-28 14:07:00,,0833.7,5.00,0.00,28.7,27.0,00.0,37.5,30.6,21.2,0000.0,0004.52,0011.32,0003.76
2022-09-28 14:08:00,,0833.7,5.00,0.00,28.7,27.1,00.0,37.5,30.6,21.0,0000.0,0004.52,0011.40,0003.74
2022-09-28 14:09:00,,0833.7,4.99,0.00,28.7,27.1,00.0,37.5,30.6,20.7,0000.0,0004.49,0011.32,0003.73
2022-09-28 14:10:00,,0833.7,5.00,0.00,28.7,27.1,00.0,37.5,30.6,20.8,0000.0,0004.47,0011.16,0003.72
2022-09-28 14:11:00,,0833.7,5.00,0.00,28.7,27.1,00.0,37.5,30.6,20.9,0000.0,0004.43,0010.97,0003.71
2022-09-28 14:12:00,,0833.7,4.99,0.00,28.7,27.1,00.0,37.5,30.6,20.8,0000.0,0004.42,0010.95,0003.69
2022-09-28 14:13:00,,0833.7,5.01,0.00,28.7,27.0,00.0,37.5,30.5,20.9,0000.0,0004.39,0010.77,0003.68
2022-09-28 14:14:00,,0833.7,5.01,0.00,28.7,27.0,00.0,37.5,30.5,21.1,0000.0,0004.38,0011.15,0003.67
2022-09-28 14:15:00,,0833.7,4.99,0.00,28.7,27.1,00.0,37.5,30.6,21.1,0000.0,0004.34,0010.83,0003.66
2022-09-28 14:16:00,,0833.7,5.01,0.00,28.7,27.0,00.0,37.5,30.6,21.1,0000.0,0004.35,0010.90,0003.66
2022-09-28 14:17:00,,0833.7,5.01,0.00,28.7,27.0,00.0,37.5,30.5,21.4,0000.0,0004.32,0010.80,0003.66
2022-09-28 14:18:00,,0833.7,4.99,0.00,28.7,27.1,00.0,37.5,30.6,21.5,0000.0,0004.32,0010.47,0003.66
2022-09-28 14:19:00,,0833.7,5.01,0.00,28.7,27.1,00.0,37.5,30.6,21.4,0000.0,0004.33,0010.20,0003.66
2022-09-28 14:20:00,,0833.7,4.99,0.00,28.7,27.1,00.0,37.5,30.6,21.2,0000.0,0004.37,0010.28,0003.67
2022-09-28 14:21:00,,0833.7,5.01,0.00,28.7,27.1,00.0,37.5,30.6,21.4,0000.0,0004.37,0010.41,0003.67
2022-09-28 14:22:00,,0833.7,4.99,0.00,28.7,27.1,00.0,37.5,30.6,21.2,0000.0,0004.40,0010.56,0003.68
2022-09-28 14:23:00,,0833.7,5.00,0.00,28.7,27.2,00.0,37.5,30.6,21.1,0000.0,0004.48,0011.22,0003.70
2022-09-28 14:24:00,,0833.7,4.99,0.00,28.7,27.2,00.0,37.5,30.6,21.3,0000.0,0004.58,0012.03,0003.71
2022-09-28 14:25:00,,0833.7,5.01,0.00,28.7,27.2,00.0,37.5,30.6,21.4,0000.0,0004.62,0011.56,0003.72
2022-09-28 14:26:00,,0833.7,5.00,0.00,28.7,27.2,00.0,37.5,30.6,21.3,0000.0,0004.66,0010.69,0003.72
2022-09-28 14:27:00,,0833.7,4.99,0.00,28.7,27.2,00.0,37.5,30.6,21.4,0000.0,0004.63,0010.32,0003.73
2022-09-28 14:28:00,,0833.7,5.01,0.00,28.7,27.2,00.0,37.5,30.6,21.3,0000.0,0004.64,0010.41,0003.74
2022-09-28 14:29:00,,0833.7,4.99,0.00,28.8,27.3,00.0,37.5,30.6,21.2,0000.0,0004.63,0010.75,0003.74
2022-09-28 14:30:00,,0833.7,5.01,0.00,28.8,27.3,00.0,37.5,30.7,21.3,0000.0,0004.66,0011.24,0003.74
2022-09-28 14:31:00,,0833.7,4.99,0.00,28.8,27.3,00.0,37.5,30.7,21.3,0000.0,0004.63,0011.47,0003.74
2022-09-28 14:32:00,,0833.7,5.01,0.00,28.8,27.3,00.0,37.5,30.7,21.3,0000.0,0004.62,0011.80,0003.75
2022-09-28 14:33:00,,0833.7,4.99,0.00,28.8,27.3,00.0,37.5,30.7,21.5,0000.0,0004.64,0011.85,0003.74
2022-09-28 14:34:00,,0833.8,5.00,0.00,28.8,27.3,00.0,37.5,30.7,21.6,0000.0,0004.62,0011.55,0003.74
2022-09-28 14:35:00,,0833.8,4.99,0.00,28.8,27.2,00.0,37.5,30.7,21.6,0000.0,0004.54,0010.79,0003.75
2022-09-28 14:36:00,,0833.8,5.01,0.00,28.8,27.2,00.0,37.5,30.7,21.7,0000.0,0004.52,0010.81,0003.76
2022-09-28 14:37:00,,0833.8,4.99,0.00,28.8,27.3,00.0,37.5,30.7,21.8,0000.0,0004.52,0010.91,0003.77
2022-09-28 14:38:00,,0833.9,5.00,0.00,28.8,27.3,00.0,37.5,30.7,21.6,0000.0,0004.56,0011.19,0003.77
2022-09-28 14:39:00,,0833.9,5.01,0.00,28.8,27.3,00.0,37.5,30.7,22.1,0000.0,0004.57,0011.34,0003.77
2022-09-28 14:40:00,,0833.8,4.99,0.00,28.8,27.3,00.0,37.5,30.7,22.2,0000.0,0004.58,0011.51,0003.78
2022-09-28 14:41:00,,0833.8,5.01,0.00,28.8,27.3,00.0,37.6,30.7,22.5,0000.0,0004.57,0011.72,0003.79
2022-09-28 14:42:00,,0833.8,4.98,0.00,28.8,27.3,00.0,37.6,30.7,22.4,0000.0,0004.57,0011.47,0003.78
2022-09-28 14:43:00,,0833.9,5.01,0.00,28.8,27.4,00.0,37.6,30.7,22.4,0000.0,0004.62,0011.99,0003.78
2022-09-28 14:44:00,,0833.9,4.99,0.00,28.8,27.4,00.0,37.6,30.7,22.0,0000.0,0004.66,0012.93,0003.80
2022-09-28 14:45:00,,0833.9,5.01,0.00,28.8,27.4,00.0,37.6,30.7,22.3,0000.0,0004.67,0012.90,0003.82
2022-09-28 14:46:00,,0833.9,4.99,0.00,28.9,27.4,00.0,37.6,30.7,22.4,0000.0,0004.71,0012.99,0003.81
2022-09-28 14:47:00,,0833.8,5.01,0.00,28.9,27.5,00.0,37.6,30.8,22.2,0000.0,0004.71,0013.56,0003.81
2022-09-28 14:48:00,,0833.9,4.99,0.00,28.9,27.5,00.0,37.6,30.8,22.2,0000.0,0004.72,0013.86,0003.82
2022-09-28 14:49:00,,0833.9,5.01,0.00,28.9,27.5,00.0,37.6,30.8,22.4,0000.0,0004.75,0013.96,0003.83
2022-09-28 14:50:00,,0833.9,4.99,0.00,28.9,27.4,00.0,37.6,30.8,22.4,0000.0,0004.76,0013.97,0003.84
2022-09-28 14:51:00,,0833.8,5.01,0.00,28.9,27.4,00.0,37.6,30.8,22.5,0000.0,0004.76,0013.79,0003.85
2022-09-28 14:52:00,,0833.9,4.99,0.00,28.9,27.4,00.0,37.6,30.8,22.6,0000.0,0004.75,0013.49,0003.85
2022-09-28 14:53:00,,0833.9,5.02,0.00,28.9,27.4,00.0,37.6,30.8,22.5,0000.0,0004.76,0013.50,0003.87
2022-09-28 14:54:00,,0833.9,4.99,0.00,28.9,27.4,00.0,37.7,30.8,23.0,0000.0,0004.75,0012.40,0003.87
2022-09-28 14:55:00,,0833.9,5.01,0.00,28.9,27.4,00.0,37.6,30.8,23.2,0000.0,0004.71,0012.15,0003.87
2022-09-28 14:56:00,,0833.9,4.98,0.00,28.9,27.5,00.0,37.6,30.8,23.1,0000.0,0004.72,0012.23,0003.87
2022-09-28 14:57:00,,0833.9,5.01,0.00,28.9,27.5,00.0,37.7,30.8,22.8,0000.0,0004.70,0012.34,0003.87
2022-09-28 14:58:00,,0833.9,5.00,0.00,28.9,27.4,00.0,37.7,30.8,22.6,0000.0,0004.69,0012.23,0003.87
2022-09-28 14:59:00,,0833.9,4.99,0.00,28.9,27.4,00.0,37.7,30.8,22.6,0000.0,0004.65,0011.85,0003.86
